Quillayute, WA

10:00 PM PDT on June 23, 2017 (GMT -0700)
Quillayute

Weather History for KUIL - August, 2012

Change the Weather History Date:

Tuesday, August 7, 2012

  Actual Average Record
Temperature  
Mean Temperature 62 °F 60 °F  
Max Temperature 66 °F 69 °F 96 °F (1978)
Min Temperature 58 °F 51 °F 44 °F (1997)
Degree Days  
Heating Degree Days 3 5  
Month to date heating degree days 35  
Since 1 June heating degree days 523  
Since 1 July heating degree days 229  
Cooling Degree Days 0 0  
Month to date cooling degree days 0  
Year to date cooling degree days 11  
Since 1 June cooling degree days 10  
Growing Degree Days 12 (Base 50)    
Moisture  
Dew Point 57 °F    
Average Humidity 85    
Maximum Humidity 93    
Minimum Humidity 61    
Precipitation  
Precipitation 0.01 in 0.06 in 1.49 in (1991)
Month to date precipitation 0.41  
Year to date precipitation 54.64  
Sea Level Pressure  
Sea Level Pressure 30.09 in    
Wind  
Wind Speed 3 mph (SW)    
Max Wind Speed 12 mph    
Max Gust Speed 15 mph    
Visibility 8 miles    
Events Rain    
T = Trace of Precipitation, MM = Missing Value Source: NWS Daily Summary

Daily Weather History Graph

Daily Weather History Graph

Search for Another Location

Airport or City:

Trip Planner

Search our weather history database for the weather conditions in past years. The results will help you decide how hot, cold, wet, or windy it might be!

Date:

Astronomy

Aug. 07, 2012 Rise Set
Actual Time 6:03 AM PDT 8:43 PM PDT
Civil Twilight 5:27 AM PDT 9:18 PM PDT
Nautical Twilight 4:43 AM PDT 10:03 PM PDT
Astronomical Twilight 3:50 AM PDT 10:55 PM PDT
Moon 10:52 PM PDT (8/7) 12:30 PM PDT (8/7)
Length of Visible Light 15h 50m
Length of Day
14h 40m
Waning Gibbous, 69% of the Moon is Illuminated
Aug 7
Waning Gibbous
Aug 9
Last Quarter
Aug 17
New
Aug 24
First Quarter
Aug 31
Full

Hourly Weather History & Observations

Time (PDT) Temp. Dew Point Humidity Pressure Visibility Wind Dir Wind Speed Gust Speed Precip Events Conditions
12:53 AM 60.1 °F 57.0 °F 90% 30.12 in 5.0 mi Calm Calm - N/A   Overcast
1:53 AM 60.1 °F 57.0 °F 90% 30.11 in 5.0 mi Calm Calm - N/A   Overcast
2:19 AM 60.8 °F 57.2 °F 88% 30.11 in 5.0 mi Calm Calm - N/A   Overcast
2:53 AM 60.1 °F 57.9 °F 93% 30.10 in 2.5 mi Calm Calm - N/A   Overcast
3:01 AM 60.8 °F 57.2 °F 88% 30.10 in 3.0 mi Calm Calm - N/A   Overcast
3:53 AM 60.1 °F 57.9 °F 93% 30.09 in 6.0 mi Calm Calm - 0.01 in   Scattered Clouds
4:31 AM 60.8 °F 57.2 °F 88% 30.09 in 9.0 mi Calm Calm - N/A   Mostly Cloudy
4:53 AM 60.1 °F 57.9 °F 93% 30.09 in 10.0 mi Calm Calm - N/A   Overcast
5:25 AM 60.8 °F 57.2 °F 88% 30.08 in 10.0 mi Calm Calm - N/A   Overcast
5:53 AM 60.1 °F 57.0 °F 90% 30.09 in 7.0 mi Calm Calm - N/A   Overcast
6:53 AM 60.1 °F 57.9 °F 93% 30.09 in 10.0 mi Calm Calm - N/A   Overcast
7:00 AM 60.8 °F 57.2 °F 88% 30.09 in 8.0 mi Calm Calm - N/A   Overcast
7:53 AM 61.0 °F 57.9 °F 90% 30.09 in 10.0 mi Calm Calm - N/A   Overcast
8:27 AM 60.8 °F 57.2 °F 88% 30.09 in 8.0 mi Calm Calm - N/A   Overcast
8:37 AM 60.8 °F 57.2 °F 88% 30.09 in 1.8 mi South 4.6 mph - N/A Rain Light Rain
8:45 AM 60.8 °F 57.2 °F 88% 30.09 in 3.0 mi Calm Calm - 0.00 in Rain Light Rain
8:53 AM 60.8 °F 57.2 °F 88% 30.09 in 6.0 mi Calm Calm - N/A   Overcast
9:53 AM 62.1 °F 59.0 °F 90% 30.09 in 5.0 mi SW 4.6 mph - N/A   Overcast
10:19 AM 62.6 °F 57.2 °F 82% 30.09 in 7.0 mi SSW 4.6 mph - N/A   Overcast
10:27 AM 62.6 °F 59.0 °F 88% 30.09 in 6.0 mi SW 5.8 mph - N/A   Overcast
10:53 AM 64.0 °F 59.0 °F 84% 30.09 in 10.0 mi SW 4.6 mph - N/A   Overcast
11:07 AM 62.6 °F 57.2 °F 82% 30.09 in 10.0 mi WSW 3.5 mph - N/A   Overcast
11:17 AM 64.4 °F 57.2 °F 77% 30.08 in 10.0 mi South 4.6 mph - N/A   Overcast
11:43 AM 64.4 °F 57.2 °F 77% 30.08 in 10.0 mi SW 4.6 mph - N/A   Overcast
11:53 AM 63.0 °F 57.9 °F 84% 30.09 in 10.0 mi West 6.9 mph - N/A   Overcast
12:53 PM 64.0 °F 55.9 °F 75% 30.09 in 10.0 mi Variable 3.5 mph - N/A   Overcast
1:53 PM 64.0 °F 55.9 °F 75% 30.09 in 10.0 mi WSW 9.2 mph - N/A   Overcast
2:53 PM 64.0 °F 55.0 °F 73% 30.09 in 10.0 mi SSW 5.8 mph - N/A   Overcast
3:53 PM 64.0 °F 55.0 °F 73% 30.08 in 10.0 mi SSW 8.1 mph - N/A   Overcast
4:53 PM 64.0 °F 54.0 °F 70% 30.08 in 10.0 mi SW 8.1 mph - N/A   Overcast
5:53 PM 63.0 °F 54.0 °F 72% 30.08 in 10.0 mi SSW 4.6 mph - N/A   Overcast
6:53 PM 62.1 °F 55.0 °F 78% 30.07 in 10.0 mi South 4.6 mph - N/A   Overcast
7:53 PM 61.0 °F 55.0 °F 81% 30.08 in 10.0 mi Variable 5.8 mph - N/A   Overcast
8:53 PM 59.0 °F 55.0 °F 87% 30.08 in 10.0 mi SSW 3.5 mph - N/A   Overcast
9:44 PM 59.0 °F 55.4 °F 88% 30.08 in 10.0 mi Variable 3.5 mph - N/A   Overcast
9:53 PM 59.0 °F 55.9 °F 90% 30.08 in 10.0 mi South 3.5 mph - N/A   Overcast
10:53 PM 59.0 °F 55.9 °F 90% 30.09 in 9.0 mi Calm Calm - N/A   Overcast
11:05 PM 59.0 °F 55.4 °F 88% 30.08 in 7.0 mi SSW 3.5 mph - 0.00 in Rain Light Rain
11:53 PM 59.0 °F 55.9 °F 90% 30.09 in 8.0 mi Calm Calm - 0.00 in   Overcast